Regional Weather Roundup
Issued by NWS State College, PA

Home | Current Version | Previous Version | Text Only | Print | Product List | Glossary Off
Versions: 1 2 3 4 5 6 7 8 9 10 11 12 13 14 15 16 17 18 19 20 21 22 23 24 25 26 27 28 29 30 31 32 33 34 35 36 37 38 39 40 41 42 43 44 45 46 47 48 49 50

410
ASUS41 KCTP 301603
RWRCTP

REGIONAL WEATHER ROUNDUP
NATIONAL WEATHER SERVICE STATE COLLEGE PA
1200 PM EDT MON MAY 30 2016

Note: "fair" indicates few or no clouds below 12,000 feet with no
significant weather and/or obstructions to visibility.

* = STATION THAT DOES NOT REPORT PRECIPITATION /E.G. RAIN...SNOW...ETC/
    THUNDER OR FOG.

PAZ002>004-007>009-013>016-020>023-029>032-301700-
WESTERN PENNSYLVANIA

CITY           SKY/WX    TMP DP  RH WIND       PRES   REMARKS
ERIE           CLOUDY    72  58  61 W10       30.01S
MEADVILLE      MOSUNNY   75  57  53 W8        30.03S
FRANKLIN*      MOSUNNY   75  59  57 W7        30.05S
NEW CASTLE     FAIR      77  60  55 VRB6      30.03F
BEAVER COUNTY  NOT AVBL
BUTLER*        MOSUNNY   75  64  69 W5        30.06F
PITTSBURGH INT PTSUNNY   77  63  61 CALM      30.02F
PITTSBURGH     MOSUNNY   78  62  57 NW5       30.02F
INDIANA*       PTSUNNY   75  66  73 VRB5      30.06S
LATROBE        MOSUNNY   77  66  69 W8        30.04S
WASHINGTON CO* CLOUDY    75  63  64 N5        30.04S
$$

PAZ004>006-010>012-017>019-024>028-033>037-041-042-045-046-049>053-301700-
CENTRAL PENNSYLVANIA

CITY           SKY/WX    TMP DP  RH WIND       PRES   REMARKS
BRADFORD       MOSUNNY   73  58  59 W8        30.04S
DUBOIS         MOSUNNY   74  61  63 VRB3      30.03S
CLEARFIELD     SUNNY     76  64  66 VRB6      30.02F
JOHNSTOWN      MOSUNNY   74  59  59 VRB6      30.06S
ALTOONA        SUNNY     78  59  51 CALM      30.03S
STATE COLLEGE  SUNNY     79  64  61 SW7       30.00F
WILLIAMSPORT   SUNNY     80  62  54 W5        29.96F
SELINSGROVE    SUNNY     78  63  59 SW6       29.99F
FT INDIANTOWN  MOSUNNY   75  67  75 S6        30.00F
CAPITAL CITY   SUNNY     79  63  57 W3        29.99F
HARRISBURG     PTSUNNY   78  66  66 SE5       29.99F
YORK           SUNNY     78  66  66 VRB3      30.00F
$$

PAZ038>040-043-044-047-048-054-055-060>062-067>071-301700-
EASTERN PENNSYLVANIA

CITY           SKY/WX    TMP DP  RH WIND       PRES   REMARKS
SCRANTON       MOSUNNY   76  63  64 SW6       29.99F
MOUNT POCONO   CLOUDY    72  59  63 VRB6      30.03F
ALLENTOWN      CLOUDY    76  65  68 VRB3      29.99F
QUAKERTOWN*    PTSUNNY   77  66  69 CALM      30.01F
READING        MOSUNNY   78  63  59 CALM      29.98F
LANCASTER      SUNNY     77  65  66 VRB3      30.00F
COATESVILLE    MOSUNNY   75  64  69 CALM      30.02F
POTTSTOWN      PTSUNNY   77  67  71 VRB3      30.01F
BLUE BELL      PTSUNNY   77  68  73 W3        29.98F
DOYLESTOWN     PTSUNNY   77  66  68 VRB5      29.98F
WILLOW GROVE   NOT AVBL
NORTH PHILA    PTSUNNY   79  68  69 CALM      30.00F
PHILADELPHIA   CLOUDY    77  68  73 S6        29.99F
$$




USA.gov is the U.S. government's official web portal to all federal, state and local government web resources and services.